This is the latest recevied weather packets stored in our database for station/object WB5CFT. If no packets are shown the sender has not sent any weather packets the latest 10 day(s).
| Time | Temp. | Humidity | Pressure | Rain* | Wind** | Luminosity | Snow |
|---|---|---|---|---|---|---|---|
| 1777860974 | 21.67° C | 46% | 1014.4 hPa | 0 mm | - | 0 W/m² | - |
| 1777860670 | 22.22° C | 45% | 1014.7 hPa | 0 mm | - | 0 W/m² | - |
| 1777860367 | 22.22° C | 45% | 1014.7 hPa | 0 mm | - | 0 W/m² | - |
| 1777860063 | 22.22° C | 44% | 1014.7 hPa | 0 mm | - | 0 W/m² | - |
| 1777859760 | 22.22° C | 44% | 1014.7 hPa | 0 mm | - | 0 W/m² | - |
| 1777859455 | 22.78° C | 44% | 1014.7 hPa | 0 mm | - | 1 W/m² | - |
| 1777859153 | 22.78° C | 44% | 1014.9 hPa | 0 mm | - | 2 W/m² | - |
| 1777858850 | 22.78° C | 43% | 1014.6 hPa | 0 mm | - | 3 W/m² | - |
| 1777858547 | 22.78° C | 43% | 1014.6 hPa | 0 mm | - | 4 W/m² | - |
| 1777858244 | 22.78° C | 43% | 1014.8 hPa | 0 mm | - | 6 W/m² | - |
| 1777857941 | 22.78° C | 43% | 1014.8 hPa | 0 mm | - | 9 W/m² | - |
| 1777857639 | 22.78° C | 42% | 1014.7 hPa | 0 mm | - | 12 W/m² | - |
| 1777857335 | 23.33° C | 42% | 1014.8 hPa | 0 mm | - | 16 W/m² | - |
| 1777857031 | 23.33° C | 42% | 1014.8 hPa | 0 mm | - | 17 W/m² | - |
| 1777856727 | 23.33° C | 42% | 1014.7 hPa | 0 mm | - | 21 W/m² | - |
| 1777856418 | 23.33° C | 41% | 1015 hPa | 0 mm | - | 26 W/m² | - |
| 1777856114 | 23.33° C | 41% | 1014.9 hPa | 0 mm | - | 32 W/m² | - |
| 1777855812 | 23.33° C | 41% | 1014.7 hPa | 0 mm | - | 40 W/m² | - |
| 1777855510 | 23.89° C | 41% | 1014.8 hPa | 0 mm | - | 46 W/m² | - |
| 1777855207 | 23.89° C | 41% | 1014.9 hPa | 0 mm | - | 49 W/m² | - |
| 1777854902 | 23.89° C | 40% | 1015.1 hPa | 0 mm | - | 52 W/m² | - |
| 1777854599 | 23.89° C | 41% | 1015.1 hPa | 0 mm | - | 63 W/m² | - |
| 1777854296 | 23.89° C | 40% | 1014.9 hPa | 0 mm | - | 70 W/m² | - |
| 1777853994 | 23.89° C | 40% | 1015 hPa | 0 mm | - | 76 W/m² | - |
| 1777853691 | 24.44° C | 40% | 1015 hPa | 0 mm | - | 85 W/m² | - |
* Rain latest hour (hover to see other rain measurements)
** Current wind speed in m/s (hover to see current wind gust speed)